{"data":{"norad_id":67620,"intl_designator":"2026-020D","name":"STARLINK-36607","alt_names":[],"object_type":"PAYLOAD","status":"ACTIVE","operator":null,"country":"US","launch_date":"2026-01-30","launch_site_code":"AFETR","launch_vehicle":null,"mission":null,"orbit_class":"UNKNOWN","rcs_meters":null,"size_class":null,"mass_kg":null,"dimensions":null,"purposes":["comms"],"wikipedia_slug":null,"has_3d_model":false,"image_url":null,"decayed_at":null,"tle_current":{"epoch":"2026-05-25T03:59:05.148384Z","epoch_age_seconds":63903,"freshness":"FRESH","line1":"1 67620U 26020D   26145.16603181  .00015298  00000+0  56412-3 0  9990","line2":"2 67620  43.0024  67.5254 0001226 259.9105 100.1608 15.27590446 17813","mean_motion":15.27590446,"eccentricity":0.0001226,"inclination_deg":43.0024,"raan_deg":67.5254,"arg_perigee_deg":259.9105,"mean_anomaly_deg":100.1608,"bstar":0.00056412,"rev_number":1781,"period_min":94.266104096857,"perigee_km":482.17663955539,"apogee_km":483.85899471655,"semimajor_km":6861.154817136,"source":"CELESTRAK","updated_at":"2026-05-25T13:38:21.649441Z"}}}